Content
SEND FEEDBACK

Daily
Averages
Monthly
Summary
United States of America

GREEN ISLAND, NEW YORK


Home > North America > United States > New York
Elevation: 23 feet     Latitude: 42 45N     Longitude: 073 40W

WEATHER
 
SELECT A DAY
Number of Records: 207,224;   Date Range: 1/1/95 - 9/14/14
 
SHARE

PRINT THIS DATA

[ ← Previous Day ]
WEATHER ALMANAC - JANUARY 23, 2013
[ Next Day → ]
[ °C ]   °F
Weather ElementAverageHighLow
Temperature4.9 °F10 °F (1:51 pm) (11:51 pm)
Dewpoint-7.3 °F-5.1 °F (9:51 am)-9.4 °F (8:51 pm)
Humidity57.7 %69 % (11:51 pm)46 % (3:51 pm)
Barometer30.20 in30.24 in (9:51 am)30.16 in (1:51 am)
Wind Speed7.2 mph17.3 mph (1:51 pm)
Wind Gust26.5 mph (1:51 pm)
Weather ElementAverage
Visibility10 mi
Wind DirectionSSW (201.3 °)

Weather ElementTotal
Precipitation---
Heating Degree Days60 (Base 65)
Averaged from 23 records on January 23, 2013
WEATHER CONDITIONS BREAKOUT
WIND DIRECTION BREAKOUT
WEATHER BY HOUR - JANUARY 23, 2013
[ °C ]   °F
Local TimeTemperatureDewpointHumidityBarometerVisibilityWind DirectionWind SpeedGust SpeedPrecipitationEventsConditions
1:51 AM7.0 °F-7.1 °F53 %30.16 in10.0 miWNW (290°)8.1 mphClear
2:51 AM5.0 °F-7.1 °F58 %30.17 in10.0 miWNW (300°)6.9 mphClear
3:51 AM3.0 °F-8.0 °F60 %30.18 in10.0 miWest (280°)5.8 mphClear
4:51 AM1.9 °F-7.1 °F66 %30.19 in10.0 miCalmClear
5:51 AM1.9 °F-7.1 °F66 %30.19 in10.0 miCalmPartly Cloudy
6:51 AM1.9 °F-7.1 °F66 %30.20 in10.0 miCalmScattered Clouds
7:51 AM3.0 °F-6.0 °F66 %30.22 in10.0 miWest (280°)3.5 mphScattered Clouds
8:51 AM5.0 °F-6.0 °F61 %30.22 in10.0 miWest (280°)6.9 mphPartly Cloudy
9:51 AM6.1 °F-5.1 °F60 %30.24 in10.0 miNNW (330°)9.2 mphScattered Clouds
10:51 AM7.0 °F-5.1 °F58 %30.24 in10.0 miWNW (290°)10.4 mphScattered Clouds
11:51 AM8.1 °F-5.1 °F55 %30.21 in10.0 miWNW (300°)11.5 mphScattered Clouds
12:51 PM8.6 °F-5.8 °F52 %30.16 in10.0 miWNW (290°)13.8 mph25.3 mphPartly Cloudy
1:51 PM10.0 °F-6.0 °F48 %30.18 in10.0 miWNW (300°)17.3 mph26.5 mphScattered Clouds
2:51 PM8.1 °F-8.0 °F48 %30.19 in10.0 miWNW (290°)16.1 mph26.5 mphMostly Cloudy
3:51 PM8.1 °F-9.0 °F46 %30.19 in10.0 miWNW (290°)16.1 mphMostly Cloudy
4:51 PM7.0 °F-9.0 °F48 %30.20 in10.0 miWNW (290°)10.4 mphScattered Clouds
5:51 PM6.1 °F-8.0 °F53 %30.21 in10.0 miWest (270°)12.7 mphScattered Clouds
6:51 PM5.0 °F-8.0 °F55 %30.22 in10.0 miWest (270°)10.4 mphScattered Clouds
7:51 PM3.9 °F-8.0 °F58 %30.21 in10.0 miWest (280°)6.9 mphPartly Cloudy
8:51 PM3.2 °F-9.4 °F56 %30.18 in10.0 miCalmClear
9:51 PM1.9 °F-9.0 °F60 %30.20 in10.0 miCalmClear
10:51 PM1.0 °F-8.0 °F66 %30.20 in10.0 miCalmClear
11:51 PM0.0 °F-8.0 °F69 %30.20 in10.0 miCalmClear
Hourly data recorded from KALB, located miles away from Green Island, New York







STORIES FROM OUR PARTNERS